This is the latest recevied weather packets stored in our database for station/object KB1QVF. If no packets are shown the sender has not sent any weather packets the latest 10 day(s).
| Time | Temp. | Humidity | Pressure | Rain* | Wind** | Luminosity | Snow |
|---|---|---|---|---|---|---|---|
| 1778009103 | 23.89° C | 45% | 1010.9 hPa | 0 mm | - | 621 W/m² | - |
| 1778008801 | 24.44° C | 43% | 1010.8 hPa | 0 mm | - | 633 W/m² | - |
| 1778008499 | 25° C | 43% | 1011.1 hPa | 0 mm | - | 642 W/m² | - |
| 1778008196 | 24.44° C | 44% | 1010.8 hPa | 0 mm | - | 651 W/m² | - |
| 1778007890 | 25° C | 44% | 1010.7 hPa | 0 mm | - | 661 W/m² | - |
| 1778007586 | 25° C | 44% | 1010.8 hPa | 0 mm | - | 670 W/m² | - |
| 1778007284 | 25.56° C | 44% | 1010.7 hPa | 0 mm | - | 681 W/m² | - |
| 1778006980 | 25.56° C | 42% | 1010.8 hPa | 0 mm | - | 689 W/m² | - |
| 1778006677 | 25.56° C | 44% | 1010.6 hPa | 0 mm | - | 701 W/m² | - |
| 1778006373 | 25.56° C | 39% | 1010.8 hPa | 0 mm | - | 709 W/m² | - |
| 1778006070 | 25.56° C | 40% | 1010.6 hPa | 0 mm | - | 716 W/m² | - |
| 1778005767 | 25.56° C | 40% | 1010.8 hPa | 0 mm | - | 710 W/m² | - |
| 1778005464 | 25.56° C | 38% | 1010.7 hPa | 0 mm | - | 707 W/m² | - |
| 1778005160 | 25.56° C | 38% | 1010.6 hPa | 0 mm | - | 716 W/m² | - |
| 1778004858 | 25.56° C | 38% | 1010.9 hPa | 0 mm | - | 621 W/m² | - |
| 1778004554 | 25° C | 41% | 1011.1 hPa | 0 mm | - | 746 W/m² | - |
| 1778004251 | 25° C | 41% | 1010.9 hPa | 0 mm | - | 401 W/m² | - |
| 1778003948 | 24.44° C | 44% | 1011.1 hPa | 0 mm | - | 727 W/m² | - |
| 1778003644 | 25° C | 41% | 1011.3 hPa | 0 mm | - | 762 W/m² | - |
| 1778003340 | 25° C | 42% | 1011.2 hPa | 0 mm | - | 768 W/m² | - |
| 1778003038 | 24.44° C | 46% | 1011.4 hPa | 0 mm | - | 769 W/m² | - |
| 1778002734 | 24.44° C | 43% | 1011.4 hPa | 0 mm | - | 774 W/m² | - |
| 1778002430 | 23.89° C | 44% | 1011.5 hPa | 0 mm | - | 777 W/m² | - |
| 1778002128 | 23.89° C | 46% | 1011.5 hPa | 0 mm | - | 779 W/m² | - |
| 1778001825 | 23.89° C | 44% | 1011.8 hPa | 0 mm | - | 781 W/m² | - |
* Rain latest hour (hover to see other rain measurements)
** Current wind speed in m/s (hover to see current wind gust speed)